Deming, NM

1:14 AM MST on February 24, 2017 (GMT -0700)
Deming Municipal

Weather History for KDMN - July, 2013

Change the Weather History Date:

Friday, July 26, 2013

  Actual Average Record
Temperature  
Mean Temperature 80 °F 80 °F  
Max Temperature 93 °F 94 °F 104 °F (2014)
Min Temperature 69 °F 67 °F 57 °F (1986)
Cooling Degree Days 14    
Growing Degree Days 30 (Base 50)    
Moisture  
Dew Point 62 °F    
Average Humidity 59    
Maximum Humidity 84    
Minimum Humidity 34    
Precipitation  
Precipitation T in 0.07 in 2.21 in (1957)
Month to date precipitation 2.63 1.81  
Year to date precipitation 3.14 4.92  
Sea Level Pressure  
Sea Level Pressure 30.03 in    
Wind  
Wind Speed 11 mph (WNW)    
Max Wind Speed 40 mph    
Max Gust Speed 51 mph    
Visibility 8 miles    
Events Rain , Thunderstorm    
T = Trace of Precipitation, MM = Missing Value Source: NWS Daily Summary

Daily Weather History Graph

Daily Weather History Graph

Search for Another Location

Airport or City:

Trip Planner

Search our weather history database for the weather conditions in past years. The results will help you decide how hot, cold, wet, or windy it might be!

Date:

Astronomy

Jul. 26, 2013 Rise Set
Actual Time 6:21 AM MDT 8:12 PM MDT
Civil Twilight 5:54 AM MDT 8:39 PM MDT
Nautical Twilight 5:22 AM MDT 9:12 PM MDT
Astronomical Twilight 4:47 AM MDT 9:46 PM MDT
Moon 10:49 PM MDT (7/26) 10:41 AM MDT (7/26)
Length of Visible Light 14h 44m
Length of Day
13h 50m
Waning Gibbous, 79% of the Moon is Illuminated
Jul 26
Waning Gibbous
Jul 29
Last Quarter
Aug 6
New
Aug 14
First Quarter
Aug 20
Full

Hourly Weather History & Observations

Time (MDT) Temp. Heat Index Dew Point Humidity Pressure Visibility Wind Dir Wind Speed Gust Speed Precip Events Conditions
12:53 AM 73.9 °F - 64.0 °F 71% 29.94 in 10.0 mi West 6.9 mph - N/A   Clear
1:53 AM 73.0 °F - 64.0 °F 73% 29.94 in 10.0 mi West 6.9 mph - N/A   Clear
2:53 AM 72.0 °F - 64.0 °F 76% 29.94 in 10.0 mi WNW 5.8 mph - N/A   Clear
3:53 AM 71.1 °F - 64.0 °F 78% 29.96 in 10.0 mi West 5.8 mph - N/A   Clear
4:53 AM 70.0 °F - 64.0 °F 81% 29.97 in 10.0 mi WSW 3.5 mph - N/A   Clear
5:53 AM 70.0 °F - 64.9 °F 84% 29.99 in 10.0 mi WSW 4.6 mph - N/A   Clear
6:53 AM 70.0 °F - 64.9 °F 84% 30.00 in 10.0 mi West 6.9 mph - N/A   Clear
7:53 AM 73.9 °F - 64.0 °F 71% 30.01 in 10.0 mi WNW 5.8 mph - N/A   Scattered Clouds
8:53 AM 79.0 °F - 64.0 °F 60% 30.01 in 10.0 mi NW 8.1 mph - N/A   Clear
9:53 AM 82.0 °F 83.4 °F 64.0 °F 54% 30.00 in 10.0 mi West 9.2 mph - N/A   Partly Cloudy
10:53 AM 84.0 °F 85.4 °F 64.0 °F 51% 29.99 in 10.0 mi West 9.2 mph - N/A   Clear
11:53 AM 87.1 °F 87.8 °F 63.0 °F 44% 29.97 in 10.0 mi Variable 5.8 mph - N/A   Partly Cloudy
12:53 PM 88.0 °F 88.4 °F 62.1 °F 42% 29.94 in 10.0 mi SSW 6.9 mph - N/A   Partly Cloudy
1:53 PM 91.0 °F 90.9 °F 61.0 °F 36% 29.91 in 10.0 mi West 11.5 mph 18.4 mph N/A   Mostly Cloudy
2:53 PM 91.9 °F 91.2 °F 59.0 °F 33% 29.88 in 10.0 mi West 12.7 mph 20.7 mph N/A   Scattered Clouds
3:40 PM 91.4 °F 89.9 °F 57.2 °F 31% 30.12 in 10.0 mi SW 9.2 mph 17.3 mph N/A Thunderstorm Mostly Cloudy
3:53 PM 91.0 °F 89.7 °F 57.0 °F 32% 29.87 in 10.0 mi West 11.5 mph 23.0 mph N/A Thunderstorm Mostly Cloudy
4:11 PM 86.0 °F 86.1 °F 60.8 °F 43% 30.12 in 6.0 mi NNW 25.3 mph 32.2 mph N/A Thunderstorm Haze
4:19 PM 82.4 °F 83.4 °F 62.6 °F 51% 30.13 in 4.0 mi North 20.7 mph 34.5 mph N/A Thunderstorm Haze
4:32 PM 80.6 °F 81.5 °F 60.8 °F 51% 30.17 in 2.0 mi NNE 33.4 mph 47.2 mph N/A Thunderstorm Haze
4:34 PM 78.8 °F - 62.6 °F 57% 30.16 in 0.5 mi NE 40.3 mph 48.3 mph N/A Thunderstorm Haze
4:40 PM 75.2 °F - 62.6 °F 65% 30.18 in 0.2 mi NE 36.8 mph 48.3 mph 0.00 in Rain , Thunderstorm Light Rain
4:53 PM 71.1 °F - 62.1 °F 73% 29.96 in 0.2 mi NE 26.5 mph 50.6 mph 0.00 in Rain , Thunderstorm Light Thunderstorms and Rain
5:02 PM 73.4 °F - 59.0 °F 61% 30.15 in 1.0 mi NE 27.6 mph 41.4 mph 0.00 in Thunderstorm Unknown
5:13 PM 73.4 °F - 57.2 °F 57% 30.15 in 3.0 mi ENE 21.9 mph 35.7 mph 0.00 in Thunderstorm Unknown
5:28 PM 75.2 °F - 55.4 °F 50% 30.16 in 10.0 mi ENE 15.0 mph 25.3 mph 0.00 in Thunderstorm Thunderstorm
5:53 PM 69.1 °F - 62.1 °F 78% 29.97 in 3.0 mi ESE 16.1 mph 21.9 mph 0.06 in Rain , Thunderstorm Heavy Rain
6:00 PM 69.8 °F - 62.6 °F 78% 30.16 in 2.5 mi ESE 16.1 mph 23.0 mph 0.03 in Rain , Thunderstorm Rain
6:08 PM 69.8 °F - 64.4 °F 83% 30.17 in 8.0 mi ESE 13.8 mph 23.0 mph 0.03 in Rain Light Rain
6:53 PM 73.0 °F - 61.0 °F 66% 30.04 in 10.0 mi South 10.4 mph - 0.03 in   Mostly Cloudy
7:53 PM 70.0 °F - 64.0 °F 81% 30.02 in 6.0 mi West 5.8 mph - 0.02 in Rain Light Rain
8:53 PM 68.0 °F - 64.0 °F 87% 29.99 in 10.0 mi Calm Calm - 0.05 in   Scattered Clouds
9:53 PM 68.0 °F - 64.0 °F 87% 30.04 in 10.0 mi WNW 9.2 mph - N/A   Clear
10:53 PM 68.0 °F - 64.0 °F 87% 30.03 in 10.0 mi WNW 6.9 mph - N/A   Clear
11:53 PM 68.0 °F - 63.0 °F 84% 30.01 in 10.0 mi WNW 3.5 mph - N/A   Clear